Weather History for MZBZ - October, 2012

Change the Weather History Date:

Friday, October 12, 2012

  Actual Average Record
Temperature  
Mean Temperature 80 °F -  
Max Temperature 85 °F 86 °F - ()
Min Temperature 75 °F 72 °F - ()
Cooling Degree Days 15    
Growing Degree Days 30 (Base 50)    
Moisture  
Dew Point 75 °F    
Average Humidity 85    
Maximum Humidity 100    
Minimum Humidity 60    
Precipitation  
Precipitation 0.67 in 0.30 in - ()
Sea Level Pressure  
Sea Level Pressure 29.98 in    
Wind  
Wind Speed 5 mph ()    
Max Wind Speed 16 mph    
Max Gust Speed -    
Visibility 7.1 miles    
Events Rain , Thunderstorm    
T = Trace of Precipitation, MM = Missing Value Source: Averaged Metar Reports

Daily Weather History Graph

Daily Weather History Graph

Search for Another Location

Airport or City:

Trip Planner

Search our weather history database for the weather conditions in past years. The results will help you decide how hot, cold, wet, or windy it might be!

Date:

Astronomy

Oct. 12, 2012 Rise Set
Actual Time 5:45 AM CST 5:33 PM CST
Civil Twilight 5:23 AM CST 5:54 PM CST
Nautical Twilight 4:58 AM CST 6:20 PM CST
Astronomical Twilight 4:33 AM CST 6:45 PM CST
Moon 2:52 AM CST (10/12) 3:23 PM CST (10/12)
Length of Visible Light 12h 30m
Length of Day
11h 47m
Waning Crescent, 10% of the Moon is Illuminated
Oct 12
Waning Crescent
Oct 15
New
Oct 21
First Quarter
Oct 29
Full
Nov 6
Last Quarter

Hourly Weather History & Observations

Time (CST) Temp. Heat Index Dew Point Humidity Pressure Visibility Wind Dir Wind Speed Gust Speed Precip Events Conditions
12:00 AM 82 °F - 78 °F 85% 29.97 in 12 mi East 3.5 mph - -   Partly Cloudy
3:00 AM 78 °F - 77 °F 96% 29.94 in 12 mi Calm Calm - -   Scattered Clouds
3:00 AM - - - N/A% - 6.2 mi NE 11.5 mph - N/A   Mostly Cloudy
5:00 AM 77.0 °F - 75.2 °F 94% 29.95 in 6.2 mi Calm Calm - N/A   Partly Cloudy
6:00 AM 76 °F - 75 °F 95% 29.99 in 6 mi Calm Calm - - Thunderstorm Thunderstorm
6:00 AM 77.0 °F - 75.2 °F 94% 29.98 in 6.2 mi Calm Calm - N/A Thunderstorm Thunderstorm
6:17 AM 75.2 °F - 75.2 °F 100% 30.01 in 1.9 mi North 8.1 mph - N/A Rain , Thunderstorm Thunderstorms and Rain
6:40 AM 75.2 °F - 75.2 °F 100% 29.99 in 5.0 mi North 5.8 mph - N/A Rain , Thunderstorm Thunderstorms and Rain
7:00 AM 77.0 °F - 75.2 °F 94% 30.00 in 3.7 mi NW 4.6 mph - N/A Rain , Thunderstorm Thunderstorms and Rain
7:15 AM 77.0 °F - 75.2 °F 94% 30.01 in 6.2 mi North 3.5 mph - N/A Thunderstorm Thunderstorm
8:00 AM 77.0 °F - 77.0 °F 100% 30.01 in 6.2 mi North 3.5 mph - N/A Rain , Thunderstorm Light Thunderstorms and Rain
9:00 AM 78 °F - 76 °F 93% 30.03 in 11 mi Calm Calm - - Thunderstorm Light Thunderstorm
9:00 AM 78.8 °F - 77.0 °F 94% 30.02 in 6.2 mi Calm Calm - N/A   Mostly Cloudy
10:00 AM 78.8 °F - 77.0 °F 94% 30.03 in 6.2 mi NNE 8.1 mph - N/A Thunderstorm Thunderstorm
11:00 AM 78.8 °F - 77.0 °F 94% 30.03 in 3.1 mi ENE 9.2 mph - N/A Rain Heavy Rain Showers
11:15 AM - - - N/A% 30.01 in 5.6 mi ESE 4.6 mph - N/A Rain , Thunderstorm Thunderstorms and Rain
11:35 AM - - - N/A% 30.00 in 6.2 mi SW 4.6 mph - N/A Thunderstorm Thunderstorm
12:00 PM 78 °F - 77 °F 94% 30.00 in 11 mi ESE 8.1 mph - - Rain , Thunderstorm Thunderstorms and Rain
12:00 PM 78.8 °F - 77.0 °F 94% 29.99 in 6.2 mi ESE 8.1 mph - N/A Rain , Thunderstorm Light Thunderstorms and Rain
12:30 PM - - - N/A% 29.97 in 6.2 mi East 8.1 mph - N/A   Mostly Cloudy
1:00 PM 84.2 °F 94.1 °F 77.0 °F 79% 29.94 in 6.2 mi East 8.1 mph - N/A   Scattered Clouds
2:00 PM 86.0 °F 96.9 °F 77.0 °F 74% 29.93 in 6.2 mi ENE 13.8 mph - N/A   Scattered Clouds
3:00 PM 85 °F - 75 °F 65% 29.93 in 12 mi ENE 16.1 mph - -   Mostly Cloudy
3:00 PM 86.0 °F 95.1 °F 75.2 °F 70% 29.92 in 6.2 mi ENE 16.1 mph - N/A   Scattered Clouds
4:00 PM 86.0 °F 93.4 °F 73.4 °F 66% 29.93 in 6.2 mi NE 13.8 mph - N/A   Scattered Clouds
5:00 PM 84.2 °F 90.9 °F 73.4 °F 70% 29.95 in 6.2 mi ENE 13.8 mph - N/A   Mostly Cloudy
6:00 PM 84 °F - 72 °F 60% 29.96 in 12 mi ENE 13.8 mph - -   Partly Cloudy
6:00 PM 84.2 °F 89.6 °F 71.6 °F 66% 29.95 in 6.2 mi ENE 13.8 mph - N/A   Scattered Clouds
9:00 PM 83 °F - 73 °F 65% 30.02 in 12 mi NE 11.5 mph - -   Scattered Clouds